This is the latest recevied weather packets stored in our database for station/object KB9PMA-1. If no packets are shown the sender has not sent any weather packets the latest 10 day(s).
| Time | Temp. | Humidity | Pressure | Rain* | Wind** | Luminosity | Snow |
|---|---|---|---|---|---|---|---|
| 1777762984 | 11.11° C | 43% | 1018.9 hPa | 0 mm | - | - | - |
| 1777762684 | 11.11° C | 43% | 1018.7 hPa | 0 mm | - | - | - |
| 1777762384 | 11.11° C | 43% | 1018.6 hPa | 0 mm | - | - | - |
| 1777762084 | 11.11° C | 44% | 1018.5 hPa | 0 mm | - | - | - |
| 1777761784 | 11.11° C | 46% | 1018.6 hPa | 0 mm | - | - | - |
| 1777761484 | 11.11° C | 46% | 1018.5 hPa | 0 mm | - | - | - |
| 1777761184 | 11.11° C | 46% | 1018.6 hPa | 0 mm | - | - | - |
| 1777760884 | 11.11° C | 45% | 1018.7 hPa | 0 mm | - | - | - |
| 1777760584 | 11.11° C | 43% | 1018.7 hPa | 0 mm | - | - | - |
| 1777760284 | 11.67° C | 40% | 1018.8 hPa | 0 mm | - | - | - |
| 1777759984 | 11.67° C | 45% | 1018.7 hPa | 0 mm | - | - | - |
| 1777759684 | 11.67° C | 43% | 1018.7 hPa | 0 mm | - | - | - |
| 1777759384 | 11.67° C | 40% | 1018.7 hPa | 0 mm | - | - | - |
| 1777759084 | 11.67° C | 42% | 1018.7 hPa | 0 mm | - | - | - |
| 1777758784 | 11.67° C | 44% | 1018.7 hPa | 0 mm | - | - | - |
| 1777758484 | 11.67° C | 45% | 1018.7 hPa | 0 mm | - | - | - |
| 1777758184 | 12.22° C | 41% | 1018.7 hPa | 0 mm | - | - | - |
| 1777757884 | 12.22° C | 42% | 1018.6 hPa | 0 mm | - | - | - |
| 1777757584 | 12.22° C | 43% | 1018.6 hPa | 0 mm | - | - | - |
| 1777757284 | 11.67° C | 43% | 1018.7 hPa | 0 mm | - | - | - |
| 1777756984 | 11.67° C | 45% | 1018.8 hPa | 0 mm | - | - | - |
| 1777756684 | 11.67° C | 42% | 1018.8 hPa | 0 mm | - | - | - |
| 1777756384 | 11.67° C | 44% | 1018.9 hPa | 0 mm | - | - | - |
| 1777756084 | 11.67° C | 43% | 1018.8 hPa | 0 mm | - | - | - |
| 1777755784 | 11.67° C | 43% | 1018.9 hPa | 0 mm | - | - | - |
* Rain latest hour (hover to see other rain measurements)
** Current wind speed in m/s (hover to see current wind gust speed)